SCP
0 0 0 0 0 -0 -0 -0 -0 -0 -0 -0 -0 -0 -0 -0 -0 -0 -0 -0 -0 -0 -0 -0 -0 -0 -0 -0 -0 -0 -0 -0 -0 -0 -0 -0 -0 -0 -0 -0 -0 -0 -0
-0 0 0 0 0 -0 -0 -0 -0 -0 -0 -0 -0 -0 -0 -0 -0 -0 -0 -0 -0 -0 -0 -0 -0 -0 -0 -0 -0 -0 -0 -0 -0 -0 -0 -0 -0 -0 -0 -0 -0 -0 -0
-0 0 0 0 0 0 0 -0 -0 -0 -0 -0 -0 -0 -0 -0 -0 -0 -0 -0 -0 -0 -0 -0 -0 -0 -0 -0 -0 -0 -0 -0 -0 -0 0 0 0 -0 -0 -0 -0 -0 -0
-0 -0 0 0 0 0 0 -0 -0 -0 -0 -0 -0 -0 -0 -0 -0 -0 -0 -0 -0 -0 -0 -0 -0 -0 -0 -0 -0 -0 0 0 0 0 0 0 0 -0 -0 -0 -0 -0 -0
0 0 -0 -0 -0 0 0 0 -0 -0 -0 -0 -0 -0 -0 -0 -0 -0 -0 -0 -0 -0 -0 -0 -0 -0 -0 -0 -0 0 0 0 0 0 0 0 0 0 0 0 0 -0 0
-0 -0 0 -0 -0 0 -0 -0 -0 -0 -0 -0 -0 -0 -0 -0 -0 -0 -0 -0 -0 -0 -0 -0 -0 -0 -0 -0 0 0 0 0 0 0 0 0 0 0 0 0 0 0 0
0 -0 -0 -0 -0 -0 -0 -0 -0 -0 -0 -0 -0 -0 -0 -0 -0 -0 -0 -0 -0 -0 -0 -0 -0 -0 -0 0 0 0 0 0 0 0 0 0 0 0 0 0 0 0 0
-0 -0 -0 0 -0 0 -0 -0 -0 -0 -0 -0 -0 -0 -0 -0 -0 -0 -0 -0 -0 -0 -0 -0 0 0 0 0 0 0 0 0 0 0 0 0 0 0 0 0 0 0 0
-0 -0 -0 -0 -0 -0 -0 -0 -0 -0 -0 0 0 0 -0 -0 -0 -0 -0 -0 -0 -0 -0 0 0 0 0 0 0 0 0 0 0 0 0 0 0 0 0 0 0 0 0
-0 -0 -0 -0 -0 -0 -0 -0 -0 -0 -0 -0 -0 -0 -0 -0 0 0 0 0 -0 -0 -0 0 0 0 0 0 0 0 0 0 0 0 0 0 0 0 0 0 0 0 0
0 -0 -0 -0 -0 -0 -0 -0 -0 -0 0 0 -0 -0 -0 -0 0 0 0 0 0 0 0 0 0 0 0 0 0 0 0 0 0 0 0 0 0 0 0 0 0 0 0
0 0 -0 -0 -0 -0 0 -0 -0 0 -0 -0 0 -0 -0 0 0 0 0 0 0 0 0 0 0 0 0 0 0 0 0 0 0 0 0 0 0 0 0 0 0 0 0
0 0 0 -0 -0 0 0 -0 -0 -0 -0 0 -0 -0 0 0 0 0 0 0 0 0 0 0 0 0 0 0 0 0 0 0 0 0 0 0 0 0 0 0 0 0 0
-0 -0 -0 -0 0 0 0 -0 0 0 0 0 0 0 0 0 0 0 0 0 0 0 0 0 0 0 0 0 0 0 0 0 0 0 0 0 0 0 0 0 0 0 0
-0 -0 -0 -0 0 -0 -0 0 -0 -0 -0 -0 -0 0 0 0 0 0 0 0 0 0 0 0 0 0 0 0 0 0 0 0 0 0 0 0 0 0 0 0 0 0 0
-0 -0 -0 -0 -0 -0 0 -0 -0 -0 -0 0 0 0 0 0 0 0 0 0 0 0 0 0 0 0 0 0 0 0 0 0 0 0 0 0 0 0 0 0 0 0 0
-0 -0 -0 -0 -0 -0 -0 -0 0 0 0 0 0 0 0 0 0 0 0 0 0 0 0 0 0 0 0 0 0 0 0 0 0 0 0 0 0 0 0 0 0 0 0
-0 -0 -0 0 -0 -0 0 0 0 0 0 0 0 0 0 0 0 0 0 0 0 0 0 0 0 0 0 0 0 0 0 0 0 0 0 0 0 0 0 0 0 0 0
0 0 0 0 0 0 0 0 0 0 0 0 0 0 0 0 0 0 0 0 0 0 0 0 0 0 0 0 0 0 0 0 0 0 0 0 0 0 0 0 0 0 0
0 0 0 0 0 0 0 0 0 0 0 0 0 0 0 0 0 0 0 0 0 0 0 0 0 0 0 0 0 0 0 0 0 0 0 0 0 0 0 0 0 0 0
0 0 0 0 0 0 0 0 0 0 0 0 0 0 0 0 0 0 0 0 0 0 0 0 0 0 0 0 0 0 0 0 0 0 0 0 0 0 0 0 0 0 0
0 0 0 0 0 0 0 0 0 0 0 0 0 0 0 0 0 0 0 0 0 0 0 0 0 0 0 0 0 0 0 0 0 0 0 0 0 0 0 0 0 0 0
0 0 0 0 0 0 0 0 0 0 0 0 0 0 0 0 0 0 0 0 0 0 0 0 0 0 0 0 0 0 0 0 0 0 0 0 0 0 0 0 0 0 0
0 0 0 0 0 0 0 0 0 0 0 0 0 0 0 0 0 0 0 0 0 0 0 0 0 0 0 0 0 0 0 0 0 0 0 0 0 0 0 0 0 0 0
0 0 0 0 0 0 0 0 0 0 0 0 0 0 0 0 0 0 0 0 0 0 0 0 0 0 0 0 0 0 0 0 0 0 0 0 0 0 0 0 0 0 0
0 0 0 0 0 0 0 0 0 0 0 0 0 0 0 0 0 0 0 0 0 0 0 0 0 0 0 0 0 0 0 0 0 0 0 0 0 0 0 0 0 0 0
Wind_Speed_500mb
21 27 23 23 26 24 23 19 12 16 16 17 20 21 22 22 20 19 20 20 18 18 17 16 17 18 21 21 22 27 33 30 30 28 29 28 26 24 19 15 13 21 22
27 29 26 23 21 20 23 16 17 18 19 25 22 22 25 25 28 32 25 22 21 18 19 18 21 21 28 37 38 35 35 36 33 30 28 28 28 28 28 30 26 21 21
25 28 27 25 21 25 22 18 20 17 22 23 22 25 28 29 31 32 31 29 30 32 35 34 32 30 34 33 39 39 34 28 27 24 31 30 29 25 27 29 30 30 30
29 32 27 29 31 29 24 20 24 19 20 21 25 26 30 33 35 27 28 28 32 35 36 32 32 32 33 34 35 32 29 25 21 26 24 23 22 21 22 26 29 30 30
27 29 26 26 26 28 29 23 22 18 14 16 23 24 27 28 33 27 25 29 30 33 34 29 31 30 24 25 26 24 32 30 17 21 17 19 24 18 23 22 21 26 27
31 17 26 26 25 28 30 23 22 14 12 17 23 22 21 25 26 28 27 20 30 33 29 25 22 22 23 22 25 22 23 21 8 18 22 17 18 19 21 23 25 21 21
28 24 24 25 26 26 31 26 20 13 14 19 21 20 19 22 22 23 22 22 28 26 19 19 22 19 19 20 19 18 23 15 14 12 18 13 18 16 17 23 18 21 19
30 32 29 29 27 27 30 28 18 14 18 21 20 19 17 19 20 23 24 24 20 18 14 16 20 19 18 16 18 21 26 17 10 14 10 9 9 10 16 16 15 12 14
33 30 29 29 27 27 25 22 19 18 17 16 18 19 17 18 19 21 25 20 15 10 10 13 14 14 14 14 17 20 20 10 7 10 4 8 7 6 9 10 10 13 13
29 26 26 26 24 22 21 20 17 17 14 15 16 17 15 16 17 16 16 15 11 10 8 10 9 10 10 11 14 18 25 18 13 17 12 3 4 5 5 1 2 2 5
31 29 24 21 19 19 18 17 15 13 12 11 11 12 12 12 11 12 10 5 7 9 11 7 6 7 8 9 9 10 17 13 6 10 13 18 11 10 9 6 5 5 5
32 32 30 26 19 13 16 15 13 11 9 8 8 6 9 8 7 10 5 4 8 11 12 9 7 5 6 9 8 4 11 1 9 10 14 18 16 19 13 11 10 13 11
30 29 30 30 25 22 16 14 11 10 7 4 4 3 2 3 2 2 2 3 4 6 6 5 4 3 6 3 8 7 10 7 2 4 11 14 16 18 20 16 17 17 15
30 25 30 33 32 25 21 16 14 12 12 10 8 7 5 5 3 6 4 4 5 5 6 6 5 8 5 4 6 7 10 10 10 11 15 15 18 19 17 18 18 18 17
37 32 33 32 33 32 25 23 20 19 16 14 13 11 11 11 9 9 9 10 10 9 10 10 9 8 9 10 11 13 15 15 16 16 20 21 21 22 22 21 22 23 22
38 39 36 31 33 36 38 28 23 20 16 16 17 17 16 16 14 15 14 14 14 14 15 15 15 16 16 16 16 17 18 20 21 23 25 31 32 31 30 30 31 29 28
38 36 36 34 32 37 37 34 33 30 28 26 22 20 19 20 21 20 20 20 20 18 17 18 22 24 25 27 29 31 34 35 37 39 40 43 47 47 46 44 42 42 39
40 41 39 38 38 32 35 34 33 31 25 23 24 25 23 21 24 25 25 26 25 26 23 22 27 32 34 37 41 42 39 46 47 49 50 54 56 59 60 58 56 55 54
37 37 38 43 46 39 32 32 31 32 31 28 24 23 24 25 23 26 29 28 31 29 30 30 32 38 41 44 49 52 55 57 58 60 63 64 64 66 69 68 68 66 64
35 35 38 45 45 38 34 33 34 34 34 32 31 28 26 26 28 29 29 31 34 35 35 40 43 45 47 54 60 63 66 66 70 71 71 75 76 76 74 73 76 76 73
46 41 44 42 45 41 38 39 38 38 36 37 36 36 37 35 34 35 35 36 38 42 41 44 45 49 52 53 67 69 74 74 69 77 81 73 76 75 78 80 74 81 74
46 50 49 47 43 44 39 40 41 38 39 37 35 37 40 44 43 39 40 40 40 42 46 45 48 53 56 55 64 73 69 71 75 67 63 79 70 64 67 74 73 73 68
38 45 52 50 45 42 37 32 33 38 39 33 29 29 30 32 33 34 34 34 38 39 44 45 48 51 57 58 58 62 43 56 62 76 63 66 67 72 77 72 70 80 76
28 37 45 48 47 42 29 30 25 26 27 25 23 21 20 22 26 27 30 32 34 36 41 42 43 49 51 59 59 66 67 70 70 65 67 76 80 76 80 84 87 82 83
13 18 30 40 49 48 46 23 18 15 11 9 12 15 15 18 17 18 26 29 30 33 38 41 44 48 51 58 60 66 69 71 75 71 91 79 85 95 92 89 84 89 84
20 20 23 28 31 34 39 40 30 19 16 16 14 10 13 13 16 25 29 33 35 37 37 41 44 47 51 55 61 63 69 71 72 80 84 100 97 100 97 91 91 84 86
Wind_Direction_500mb
174 152 139 132 119 123 131 127 103 61 60 71 78 78 89 86 95 115 128 125 127 124 117 108 101 85 68 61 84 83 88 79 72 74 76 76 72 73 77 81 96 81 82
166 156 148 140 121 121 133 125 106 75 70 79 73 87 86 80 82 90 97 97 103 117 109 100 93 78 81 81 84 87 83 78 68 60 64 66 67 63 69 64 68 75 76
174 153 139 130 126 119 136 130 113 88 80 69 79 85 83 79 86 81 76 83 86 84 88 93 97 92 88 90 98 88 81 80 73 70 82 74 74 69 80 76 71 72 78
173 157 138 127 123 132 134 134 122 105 74 67 77 84 88 88 91 81 75 78 88 95 89 88 90 92 94 101 100 95 88 82 75 68 68 81 87 81 78 80 82 80 84
122 153 146 142 136 136 137 130 125 110 76 69 77 86 92 97 104 100 78 84 81 98 88 89 89 94 98 109 103 94 82 74 67 76 81 75 84 86 84 89 90 83 83
157 139 140 136 135 134 132 125 123 119 89 66 75 84 90 96 108 104 98 80 82 87 89 90 85 94 85 83 96 91 90 85 70 82 76 86 83 85 82 86 89 93 88
158 143 135 130 126 137 134 123 128 138 116 89 83 86 88 89 95 111 102 86 89 88 95 83 77 83 82 89 84 83 99 77 9 65 85 77 87 91 95 93 86 83 85
158 150 143 136 136 134 142 136 142 135 90 73 76 82 92 91 92 102 90 81 80 102 94 82 78 79 80 81 66 83 98 79 7 15 91 91 104 91 82 83 83 88 85
140 149 144 139 135 133 139 141 130 106 97 93 86 86 84 88 92 106 108 102 102 99 112 88 77 78 73 66 60 89 103 107 353 344 63 112 99 113 111 102 95 96 99
166 143 142 139 138 138 138 139 134 123 112 98 88 85 84 88 97 104 127 132 109 116 91 83 69 66 57 54 63 87 90 69 8 342 47 21 184 288 312 105 73 88 138
168 158 152 149 144 146 151 148 144 132 122 111 98 91 89 83 91 95 92 125 81 55 56 73 71 47 35 39 62 96 102 97 340 331 355 15 327 313 320 322 331 340 6
180 171 168 160 162 166 159 165 162 156 156 146 121 95 65 60 62 62 63 43 42 38 36 37 48 37 20 47 42 16 26 33 208 311 332 354 9 0 336 340 330 337 330
191 192 187 174 175 180 201 186 184 186 180 195 171 182 112 65 38 23 32 5 22 27 42 28 31 14 45 212 319 331 18 356 10 274 321 351 357 358 356 348 339 334 327
201 210 202 196 183 188 205 198 200 202 212 221 233 235 251 278 278 302 307 310 343 328 3 340 345 356 355 295 305 287 346 342 355 337 342 333 337 336 338 333 329 325 314
197 204 228 213 204 190 202 197 208 197 226 230 242 246 254 262 271 276 282 291 297 304 311 318 315 319 322 328 324 330 334 339 336 325 316 319 317 317 315 318 311 308 304
202 203 226 233 219 209 207 211 206 219 215 228 246 246 248 258 267 270 274 280 286 293 297 303 304 306 307 313 313 310 308 308 300 298 291 298 305 305 303 302 302 299 287
210 209 214 237 236 227 227 229 227 233 222 230 229 257 257 254 264 272 278 281 282 282 291 305 310 309 307 301 306 305 302 303 299 297 296 294 298 299 300 299 294 292 286
213 210 211 223 241 242 229 231 235 241 242 242 243 247 256 262 256 264 269 276 278 273 271 280 294 298 299 300 298 288 292 298 295 290 287 287 289 290 291 291 291 290 289
212 210 208 221 234 242 233 230 232 236 243 244 248 251 251 262 266 258 264 266 271 275 274 274 282 285 290 294 293 290 291 290 290 290 291 289 288 287 286 287 287 289 286
210 214 214 220 237 239 229 228 231 237 242 245 251 262 263 270 272 273 272 273 273 278 273 276 276 279 286 288 287 288 287 287 289 291 291 289 290 289 287 285 286 285 286
209 207 214 224 237 240 230 227 233 238 245 252 252 262 266 268 279 279 277 275 277 284 288 285 288 289 289 297 293 296 300 297 294 302 297 299 296 294 286 287 286 286 284
221 215 213 218 229 245 249 232 236 244 251 260 261 260 265 272 276 277 278 279 277 279 284 285 290 292 293 292 297 295 300 299 301 300 298 298 298 292 290 290 293 289 290
223 217 216 212 213 233 243 243 237 244 249 254 262 269 271 273 275 282 282 282 280 281 279 283 286 288 291 295 294 294 287 296 303 305 298 296 297 292 297 295 288 291 289
223 222 219 210 205 208 226 244 243 238 245 257 270 273 282 285 286 285 288 288 286 287 288 290 291 291 293 293 298 299 296 299 294 299 298 291 293 295 297 295 295 293 292
193 196 204 205 203 202 202 204 222 262 245 238 244 260 262 264 273 285 287 296 297 298 293 290 291 290 290 292 291 300 296 298 292 293 296 299 297 298 298 298 297 293 297
131 140 157 177 186 192 200 197 199 199 195 200 248 242 258 269 272 266 269 277 282 283 285 286 290 294 296 295 296 295 293 294 292 301 295 299 300 300 299 296 297 295 298
Wind_Speed_850mb
21 27 23 23 26 24 23 19 12 16 16 17 20 21 22 22 20 19 20 20 18 18 17 16 17 18 21 21 22 27 33 30 30 28 29 28 26 24 19 15 13 21 22
27 29 26 23 21 20 23 16 17 18 19 25 22 22 25 25 28 32 25 22 21 18 19 18 21 21 28 37 38 35 35 36 33 30 28 28 28 28 28 30 26 21 21
25 28 27 25 21 25 22 18 20 17 22 23 22 25 28 29 31 32 31 29 30 32 35 34 32 30 34 33 39 39 34 28 27 24 31 30 29 25 27 29 30 30 30
29 32 27 29 31 29 24 20 24 19 20 21 25 26 30 33 35 27 28 28 32 35 36 32 32 32 33 34 35 32 29 25 21 26 24 23 22 21 22 26 29 30 30
27 29 26 26 26 28 29 23 22 18 14 16 23 24 27 28 33 27 25 29 30 33 34 29 31 30 24 25 26 24 32 30 17 21 17 19 24 18 23 22 21 26 27
31 17 26 26 25 28 30 23 22 14 12 17 23 22 21 25 26 28 27 20 30 33 29 25 22 22 23 22 25 22 23 21 8 18 22 17 18 19 21 23 25 21 21
28 24 24 25 26 26 31 26 20 13 14 19 21 20 19 22 22 23 22 22 28 26 19 19 22 19 19 20 19 18 23 15 14 12 18 13 18 16 17 23 18 21 19
30 32 29 29 27 27 30 28 18 14 18 21 20 19 17 19 20 23 24 24 20 18 14 16 20 19 18 16 18 21 26 17 10 14 10 9 9 10 16 16 15 12 14
33 30 29 29 27 27 25 22 19 18 17 16 18 19 17 18 19 21 25 20 15 10 10 13 14 14 14 14 17 20 20 10 7 10 4 8 7 6 9 10 10 13 13
29 26 26 26 24 22 21 20 17 17 14 15 16 17 15 16 17 16 16 15 11 10 8 10 9 10 10 11 14 18 25 18 13 17 12 3 4 5 5 1 2 2 5
31 29 24 21 19 19 18 17 15 13 12 11 11 12 12 12 11 12 10 5 7 9 11 7 6 7 8 9 9 10 17 13 6 10 13 18 11 10 9 6 5 5 5
32 32 30 26 19 13 16 15 13 11 9 8 8 6 9 8 7 10 5 4 8 11 12 9 7 5 6 9 8 4 11 1 9 10 14 18 16 19 13 11 10 13 11
30 29 30 30 25 22 16 14 11 10 7 4 4 3 2 3 2 2 2 3 4 6 6 5 4 3 6 3 8 7 10 7 2 4 11 14 16 18 20 16 17 17 15
30 25 30 33 32 25 21 16 14 12 12 10 8 7 5 5 3 6 4 4 5 5 6 6 5 8 5 4 6 7 10 10 10 11 15 15 18 19 17 18 18 18 17
37 32 33 32 33 32 25 23 20 19 16 14 13 11 11 11 9 9 9 10 10 9 10 10 9 8 9 10 11 13 15 15 16 16 20 21 21 22 22 21 22 23 22
38 39 36 31 33 36 38 28 23 20 16 16 17 17 16 16 14 15 14 14 14 14 15 15 15 16 16 16 16 17 18 20 21 23 25 31 32 31 30 30 31 29 28
38 36 36 34 32 37 37 34 33 30 28 26 22 20 19 20 21 20 20 20 20 18 17 18 22 24 25 27 29 31 34 35 37 39 40 43 47 47 46 44 42 42 39
40 41 39 38 38 32 35 34 33 31 25 23 24 25 23 21 24 25 25 26 25 26 23 22 27 32 34 37 41 42 39 46 47 49 50 54 56 59 60 58 56 55 54
37 37 38 43 46 39 32 32 31 32 31 28 24 23 24 25 23 26 29 28 31 29 30 30 32 38 41 44 49 52 55 57 58 60 63 64 64 66 69 68 68 66 64
35 35 38 45 45 38 34 33 34 34 34 32 31 28 26 26 28 29 29 31 34 35 35 40 43 45 47 54 60 63 66 66 70 71 71 75 76 76 74 73 76 76 73
46 41 44 42 45 41 38 39 38 38 36 37 36 36 37 35 34 35 35 36 38 42 41 44 45 49 52 53 67 69 74 74 69 77 81 73 76 75 78 80 74 81 74
46 50 49 47 43 44 39 40 41 38 39 37 35 37 40 44 43 39 40 40 40 42 46 45 48 53 56 55 64 73 69 71 75 67 63 79 70 64 67 74 73 73 68
38 45 52 50 45 42 37 32 33 38 39 33 29 29 30 32 33 34 34 34 38 39 44 45 48 51 57 58 58 62 43 56 62 76 63 66 67 72 77 72 70 80 76
28 37 45 48 47 42 29 30 25 26 27 25 23 21 20 22 26 27 30 32 34 36 41 42 43 49 51 59 59 66 67 70 70 65 67 76 80 76 80 84 87 82 83
13 18 30 40 49 48 46 23 18 15 11 9 12 15 15 18 17 18 26 29 30 33 38 41 44 48 51 58 60 66 69 71 75 71 91 79 85 95 92 89 84 89 84
20 20 23 28 31 34 39 40 30 19 16 16 14 10 13 13 16 25 29 33 35 37 37 41 44 47 51 55 61 63 69 71 72 80 84 100 97 100 97 91 91 84 86
Wind_Direction_850mb
174 152 139 132 119 123 131 127 103 61 60 71 78 78 89 86 95 115 128 125 127 124 117 108 101 85 68 61 84 83 88 79 72 74 76 76 72 73 77 81 96 81 82
166 156 148 140 121 121 133 125 106 75 70 79 73 87 86 80 82 90 97 97 103 117 109 100 93 78 81 81 84 87 83 78 68 60 64 66 67 63 69 64 68 75 76
174 153 139 130 126 119 136 130 113 88 80 69 79 85 83 79 86 81 76 83 86 84 88 93 97 92 88 90 98 88 81 80 73 70 82 74 74 69 80 76 71 72 78
173 157 138 127 123 132 134 134 122 105 74 67 77 84 88 88 91 81 75 78 88 95 89 88 90 92 94 101 100 95 88 82 75 68 68 81 87 81 78 80 82 80 84
122 153 146 142 136 136 137 130 125 110 76 69 77 86 92 97 104 100 78 84 81 98 88 89 89 94 98 109 103 94 82 74 67 76 81 75 84 86 84 89 90 83 83
157 139 140 136 135 134 132 125 123 119 89 66 75 84 90 96 108 104 98 80 82 87 89 90 85 94 85 83 96 91 90 85 70 82 76 86 83 85 82 86 89 93 88
158 143 135 130 126 137 134 123 128 138 116 89 83 86 88 89 95 111 102 86 89 88 95 83 77 83 82 89 84 83 99 77 9 65 85 77 87 91 95 93 86 83 85
158 150 143 136 136 134 142 136 142 135 90 73 76 82 92 91 92 102 90 81 80 102 94 82 78 79 80 81 66 83 98 79 7 15 91 91 104 91 82 83 83 88 85
140 149 144 139 135 133 139 141 130 106 97 93 86 86 84 88 92 106 108 102 102 99 112 88 77 78 73 66 60 89 103 107 353 344 63 112 99 113 111 102 95 96 99
166 143 142 139 138 138 138 139 134 123 112 98 88 85 84 88 97 104 127 132 109 116 91 83 69 66 57 54 63 87 90 69 8 342 47 21 184 288 312 105 73 88 138
168 158 152 149 144 146 151 148 144 132 122 111 98 91 89 83 91 95 92 125 81 55 56 73 71 47 35 39 62 96 102 97 340 331 355 15 327 313 320 322 331 340 6
180 171 168 160 162 166 159 165 162 156 156 146 121 95 65 60 62 62 63 43 42 38 36 37 48 37 20 47 42 16 26 33 208 311 332 354 9 0 336 340 330 337 330
191 192 187 174 175 180 201 186 184 186 180 195 171 182 112 65 38 23 32 5 22 27 42 28 31 14 45 212 319 331 18 356 10 274 321 351 357 358 356 348 339 334 327
201 210 202 196 183 188 205 198 200 202 212 221 233 235 251 278 278 302 307 310 343 328 3 340 345 356 355 295 305 287 346 342 355 337 342 333 337 336 338 333 329 325 314
197 204 228 213 204 190 202 197 208 197 226 230 242 246 254 262 271 276 282 291 297 304 311 318 315 319 322 328 324 330 334 339 336 325 316 319 317 317 315 318 311 308 304
202 203 226 233 219 209 207 211 206 219 215 228 246 246 248 258 267 270 274 280 286 293 297 303 304 306 307 313 313 310 308 308 300 298 291 298 305 305 303 302 302 299 287
210 209 214 237 236 227 227 229 227 233 222 230 229 257 257 254 264 272 278 281 282 282 291 305 310 309 307 301 306 305 302 303 299 297 296 294 298 299 300 299 294 292 286
213 210 211 223 241 242 229 231 235 241 242 242 243 247 256 262 256 264 269 276 278 273 271 280 294 298 299 300 298 288 292 298 295 290 287 287 289 290 291 291 291 290 289
212 210 208 221 234 242 233 230 232 236 243 244 248 251 251 262 266 258 264 266 271 275 274 274 282 285 290 294 293 290 291 290 290 290 291 289 288 287 286 287 287 289 286
210 214 214 220 237 239 229 228 231 237 242 245 251 262 263 270 272 273 272 273 273 278 273 276 276 279 286 288 287 288 287 287 289 291 291 289 290 289 287 285 286 285 286
209 207 214 224 237 240 230 227 233 238 245 252 252 262 266 268 279 279 277 275 277 284 288 285 288 289 289 297 293 296 300 297 294 302 297 299 296 294 286 287 286 286 284
221 215 213 218 229 245 249 232 236 244 251 260 261 260 265 272 276 277 278 279 277 279 284 285 290 292 293 292 297 295 300 299 301 300 298 298 298 292 290 290 293 289 290
223 217 216 212 213 233 243 243 237 244 249 254 262 269 271 273 275 282 282 282 280 281 279 283 286 288 291 295 294 294 287 296 303 305 298 296 297 292 297 295 288 291 289
223 222 219 210 205 208 226 244 243 238 245 257 270 273 282 285 286 285 288 288 286 287 288 290 291 291 293 293 298 299 296 299 294 299 298 291 293 295 297 295 295 293 292
193 196 204 205 203 202 202 204 222 262 245 238 244 260 262 264 273 285 287 296 297 298 293 290 291 290 290 292 291 300 296 298 292 293 296 299 297 298 298 298 297 293 297
131 140 157 177 186 192 200 197 199 199 195 200 248 242 258 269 272 266 269 277 282 283 285 286 290 294 296 295 296 295 293 294 292 301 295 299 300 300 299 296 297 295 298